Regional Weather Roundup
Issued by NWS Goodland, KS

Home | Current Version | Previous Version | Text Only | Print | Product List | Glossary On
Versions: 1 2 3 4 5 6 7 8 9 10 11 12 13 14 15 16 17 18 19 20 21 22 23 24 25 26 27 28 29 30 31 32 33 34 35 36 37 38 39 40 41 42 43 44 45 46 47 48 49 50
000
ASUS43 KGLD 031308
RWRGLD

GOODLAND FORECAST AREA HOURLY WEATHER ROUNDUP
NATIONAL WEATHER SERVICE GOODLAND KS
700 AM MDT WED JUN 03 2015

...OFFICIAL OBSERVATIONS...

CITY           SKY/WX    TMP DP  RH WIND       PRES   REMARKS
GOODLAND KS    LGT RAIN  61  60  97 E23G33    29.89R
HILL CITY KS   CLOUDY    65  58  78 E25G33    29.90R
IMPERIAL NEB   MOSUNNY   63  54  72 NE7       29.91R
MCCOOK NEB     PTSUNNY   66  55  67 E18       29.85F
AKRON CO       CLOUDY    60  55  83 NE8       30.00R
BURLINGTON CO  FOG       60  59  96 E22G37    29.91R VSB 1/4
LIMON CO       CLOUDY    58  57  97 N20       30.01R
$$

...UNOFFICIAL OBSERVATIONS...

CITY           SKY/WX    TMP DP  RH WIND       PRES   REMARKS
COLBY KS       CLOUDY    64  63  94 NE30G38   29.89R
GOVE KS          N/A     69  32  25 MISG        N/A
NORTON KS      CLOUDY    64  54  68 E13       29.89S
SHARON SPRINGS   N/A     63  61  94 MISG        N/A
KIT CARSON CO    N/A     62  57  85 MISG        N/A
$$


USA.gov is the U.S. government's official web portal to all federal, state and local government web resources and services.